• In Russia
  • List of Countries
  • For 7 days
  • Water Temperature
  • Satellite Maps
  • Weather Map
  • Weather Widgets
  • user-avatar
    Login

    Hourly Weather Etchmiadzin

    Today, 25 June, Monday

    Time Temperature Precipitation Wind Pressure Humidity
    00:00 +22°C° 0.3 mm 3 mps 685 mmHg 70%
    01:00 +21°C° 0.3 mm 3 mps 685 mmHg 71%
    02:00 +21°C° 0.3 mm 2 mps 685 mmHg 73%
    03:00 +21°C° 0 mm 2 mps 685 mmHg 73%
    04:00 +23°C° 0.1 mm 2 mps 685 mmHg 72%
    05:00 +23°C° 0.1 mm 2 mps 686 mmHg 70%
    06:00 +24°C° 0.1 mm 2 mps 686 mmHg 69%
    07:00 +26°C° 0.1 mm 2 mps 686 mmHg 62%
    08:00 +27°C° 0.1 mm 2 mps 686 mmHg 55%
    09:00 +29°C° 0 mm 2 mps 686 mmHg 49%
    10:00 +30°C° 0.2 mm 2 mps 686 mmHg 46%
    11:00 +31°C° 0.2 mm 2 mps 686 mmHg 42%
    12:00 +34°C° 0.2 mm 2 mps 686 mmHg 39%
    13:00 +34°C° 0.2 mm 3 mps 686 mmHg 39%
    14:00 +34°C° 0.2 mm 3 mps 686 mmHg 39%
    15:00 +34°C° 0 mm 3 mps 686 mmHg 39%
    16:00 +34°C° 0.2 mm 3 mps 686 mmHg 42%
    17:00 +33°C° 0.2 mm 3 mps 686 mmHg 44%
    18:00 +32°C° 0.2 mm 4 mps 686 mmHg 47%
    19:00 +29°C° 0.2 mm 3 mps 686 mmHg 52%
    20:00 +28°C° 0.2 mm 3 mps 686 mmHg 58%
    21:00 +26°C° 0.2 mm 3 mps 686 mmHg 63%
    22:00 +25°C° 0.3 mm 3 mps 686 mmHg 64%
    23:00 +25°C° 0.3 mm 3 mps 686 mmHg 64%

    Tomorrow, 26 June, Tuesday

    Time Temperature Precipitation Wind Pressure Humidity
    00:00 +24°C° 0.3 mm 2 mps 686 mmHg 65%
    01:00 +24°C° 0.2 mm 2 mps 686 mmHg 67%
    02:00 +23°C° 0.2 mm 2 mps 685 mmHg 68%
    03:00 +23°C° 0.2 mm 2 mps 685 mmHg 70%
    04:00 +23°C° 0 mm 2 mps 685 mmHg 68%
    05:00 +24°C° 0 mm 2 mps 686 mmHg 67%
    06:00 +24°C° 0 mm 2 mps 686 mmHg 65%
    07:00 +26°C° 0 mm 2 mps 686 mmHg 59%
    08:00 +28°C° 0 mm 2 mps 686 mmHg 52%
    09:00 +29°C° 0 mm 2 mps 685 mmHg 46%
    10:00 +31°C° 0 mm 2 mps 685 mmHg 43%
    11:00 +32°C° 0 mm 2 mps 685 mmHg 39%
    12:00 +34°C° 0 mm 2 mps 685 mmHg 36%
    13:00 +35°C° 0 mm 2 mps 685 mmHg 35%
    14:00 +35°C° 0 mm 2 mps 685 mmHg 34%
    15:00 +35°C° 0 mm 3 mps 684 mmHg 33%
    16:00 +35°C° 0 mm 3 mps 684 mmHg 36%
    17:00 +34°C° 0 mm 3 mps 684 mmHg 39%
    18:00 +33°C° 0 mm 3 mps 684 mmHg 42%
    19:00 +30°C° 0.1 mm 3 mps 684 mmHg 48%
    20:00 +28°C° 0.1 mm 3 mps 684 mmHg 55%
    21:00 +26°C° 0.1 mm 3 mps 684 mmHg 61%
    22:00 +25°C° 0 mm 3 mps 684 mmHg 62%
    23:00 +25°C° 0 mm 2 mps 684 mmHg 62%

    Day after tomorrow, 27 June, Wednesday

    Time Temperature Precipitation Wind Pressure Humidity
    00:00 +24°C° 0 mm 2 mps 684 mmHg 63%
    01:00 +24°C° 0 mm 2 mps 684 mmHg 63%
    02:00 +23°C° 0 mm 2 mps 684 mmHg 62%
    03:00 +23°C° 0 mm 2 mps 684 mmHg 62%
    04:00 +23°C° 0 mm 2 mps 684 mmHg 61%
    05:00 +24°C° 0 mm 2 mps 685 mmHg 60%
    06:00 +25°C° 0 mm 2 mps 685 mmHg 59%
    07:00 +27°C° 0 mm 1 mps 685 mmHg 53%
    08:00 +29°C° 0 mm 1 mps 685 mmHg 47%
    09:00 +30°C° 0 mm 1 mps 685 mmHg 42%
    10:00 +32°C° 0 mm 1 mps 685 mmHg 39%
    11:00 +33°C° 0 mm 1 mps 685 mmHg 36%
    12:00 +35°C° 0 mm 2 mps 685 mmHg 34%
    13:00 +36°C° 0 mm 2 mps 685 mmHg 33%
    14:00 +36°C° 0 mm 2 mps 684 mmHg 32%
    15:00 +36°C° 0 mm 2 mps 684 mmHg 32%
    16:00 +36°C° 0 mm 2 mps 684 mmHg 35%
    17:00 +35°C° 0 mm 3 mps 684 mmHg 37%
    18:00 +34°C° 0 mm 3 mps 683 mmHg 40%
    19:00 +31°C° 0.1 mm 3 mps 684 mmHg 47%
    20:00 +29°C° 0.1 mm 3 mps 684 mmHg 53%
    21:00 +27°C° 0.1 mm 3 mps 684 mmHg 60%
    22:00 +26°C° 0 mm 3 mps 684 mmHg 60%
    23:00 +25°C° 0 mm 2 mps 684 mmHg 60%

    28 June, Thursday

    Time Temperature Precipitation Wind Pressure Humidity
    00:00 +25°C° 0 mm 2 mps 684 mmHg 60%
    01:00 +24°C° 0 mm 2 mps 684 mmHg 60%
    02:00 +24°C° 0 mm 2 mps 684 mmHg 61%
    03:00 +23°C° 0 mm 2 mps 684 mmHg 61%
    04:00 +24°C° 0 mm 2 mps 684 mmHg 60%
    05:00 +25°C° 0 mm 2 mps 684 mmHg 59%
    06:00 +26°C° 0 mm 1 mps 684 mmHg 58%
    07:00 +27°C° 0 mm 1 mps 684 mmHg 52%
    08:00 +29°C° 0 mm 1 mps 684 mmHg 47%
    09:00 +31°C° 0 mm 1 mps 684 mmHg 41%
    10:00 +34°C° 0 mm 2 mps 684 mmHg 38%
    11:00 +35°C° 0 mm 2 mps 684 mmHg 35%
    12:00 +36°C° 0 mm 2 mps 684 mmHg 32%
    13:00 +37°C° 0 mm 2 mps 684 mmHg 31%
    14:00 +37°C° 0 mm 3 mps 683 mmHg 30%
    15:00 +38°C° 0 mm 3 mps 683 mmHg 29%
    16:00 +37°C° 0 mm 3 mps 683 mmHg 32%
    17:00 +36°C° 0 mm 3 mps 683 mmHg 35%
    18:00 +36°C° 0 mm 3 mps 683 mmHg 37%
    19:00 +33°C° 0.1 mm 3 mps 683 mmHg 44%
    20:00 +30°C° 0.1 mm 3 mps 683 mmHg 51%
    21:00 +27°C° 0.1 mm 3 mps 683 mmHg 58%
    22:00 +27°C° 0 mm 3 mps 683 mmHg 57%
    23:00 +26°C° 0 mm 2 mps 683 mmHg 57%

    29 June, Friday

    Time Temperature Precipitation Wind Pressure Humidity
    00:00 +25°C° 0 mm 2 mps 683 mmHg 57%
    01:00 +25°C° 0 mm 2 mps 683 mmHg 57%
    02:00 +25°C° 0 mm 2 mps 683 mmHg 56%
    03:00 +24°C° 0 mm 2 mps 683 mmHg 56%
    04:00 +25°C° 0 mm 2 mps 683 mmHg 55%
    05:00 +26°C° 0 mm 2 mps 683 mmHg 54%
    06:00 +26°C° 0 mm 1 mps 683 mmHg 53%
    07:00 +28°C° 0 mm 1 mps 683 mmHg 47%
    08:00 +30°C° 0 mm 1 mps 683 mmHg 41%
    09:00 +32°C° 0 mm 1 mps 683 mmHg 35%
    10:00 +35°C° 0 mm 2 mps 683 mmHg 32%
    11:00 +36°C° 0 mm 2 mps 683 mmHg 29%
    12:00 +38°C° 0 mm 2 mps 683 mmHg 26%
    13:00 +38°C° 0 mm 2 mps 682 mmHg 25%
    14:00 +38°C° 0 mm 2 mps 682 mmHg 24%
    15:00 +39°C° 0 mm 2 mps 682 mmHg 24%
    16:00 +38°C° 0 mm 2 mps 682 mmHg 27%
    17:00 +37°C° 0 mm 2 mps 681 mmHg 30%
    18:00 +37°C° 0 mm 2 mps 681 mmHg 33%
    19:00 +34°C° 0 mm 2 mps 681 mmHg 40%
    20:00 +31°C° 0 mm 3 mps 682 mmHg 47%
    21:00 +28°C° 0 mm 3 mps 682 mmHg 54%
    22:00 +27°C° 0 mm 3 mps 682 mmHg 54%
    23:00 +27°C° 0 mm 2 mps 682 mmHg 54%

    30 June, Saturday

    Time Temperature Precipitation Wind Pressure Humidity
    00:00 +26°C° 0 mm 2 mps 682 mmHg 54%
    01:00 +26°C° 0 mm 2 mps 682 mmHg 54%
    02:00 +25°C° 0 mm 2 mps 682 mmHg 53%
    03:00 +25°C° 0 mm 2 mps 682 mmHg 52%
    04:00 +25°C° 0 mm 2 mps 682 mmHg 52%
    05:00 +26°C° 0 mm 2 mps 682 mmHg 52%
    06:00 +27°C° 0 mm 1 mps 682 mmHg 52%
    07:00 +29°C° 0 mm 2 mps 683 mmHg 45%
    08:00 +31°C° 0 mm 2 mps 683 mmHg 39%
    09:00 +34°C° 0 mm 2 mps 683 mmHg 33%
    10:00 +36°C° 0 mm 2 mps 683 mmHg 30%
    11:00 +37°C° 0 mm 2 mps 683 mmHg 27%
    12:00 +38°C° 0 mm 2 mps 683 mmHg 24%
    13:00 +39°C° 0 mm 2 mps 682 mmHg 23%
    14:00 +39°C° 0 mm 2 mps 682 mmHg 23%
    15:00 +39°C° 0 mm 3 mps 682 mmHg 22%
    16:00 +39°C° 0 mm 2 mps 682 mmHg 25%
    17:00 +38°C° 0 mm 2 mps 682 mmHg 28%
    18:00 +37°C° 0 mm 2 mps 682 mmHg 31%
    19:00 +35°C° 0 mm 2 mps 682 mmHg 38%
    20:00 +31°C° 0 mm 3 mps 682 mmHg 45%
    21:00 +28°C° 0 mm 3 mps 682 mmHg 52%
    22:00 +28°C° 0 mm 2 mps 682 mmHg 53%
    23:00 +27°C° 0 mm 2 mps 682 mmHg 54%
    Show more